Погода в Суре

Погода в Суре : погода сейчас, прогноз погоды и архив. Всё, что Вы хотите узнать о погоде в Суре!

Поиск расширенной информации на нашем сайте:

Другие новости

Новости СМИ2

Главная страница сайта

Новости сайта

03.07.2017

Напоминаем, что на нашем специализированном сайте Метеоцентр.Азия вы можете получить высокодетализированные автоматические прогнозы погоды по пунктам России, СНГ и мира в авиационном формате (включающие направление и скорость ветра, видимость, явления погоды, количество и форму облачности, нижнюю и верхнюю границу облачности).


Погода в Суре - сегодня

Время (UTC), дата Ветер
(°,м/с) 
Видим.   Явления Облачность Т
(°С)
Тd
(°С)
f(%) Тe
(°С)
Pmin
(гПа)
dP
(гПа)
Po
(мм)
O2
(г/м3)
Тmin Tmax R s Состояние
почвы
06 10.12.17 130 (ЮВ) 20000 м    10/10 540 м 
[Sc]
-9 -9.6 95 -12  1018.8  0.5  758  317           
09 10.12.17 130 (ЮВ) 20000 м    10/10 480 м 
[Sc]
-8.5 -9.2 95 -11  1019  0.3  758  316           
12 10.12.17 120 (ЮВ) 20000 м    10/6 300 м средняя 
[Sc|Ac und]
-8.2 -8.8 95 -11  1019.1  0.1  758  316           
15 10.12.17 130 (ЮВ) 20000 м    10/8 450 м средняя 
[Sc|Ac und]
-8.2 -8.9 95 -10  1019.4  0.3  758  316    -8.2       
18 10.12.17 130 (ЮВ) 20000 м  снежные кристаллы  10/10 450 м 
[Sc]
-8 -8.8 94 -12  1018.9  -0.5  758  316           
21 10.12.17 140 (ЮВ) 20000 м  {снег}  10/10 360 м 
[St]
-7.9 -8.5 95 -12  1018.8  0.1  758  315           
00 11.12.17 130 (ЮВ) 20000 м  {снег}  10/10 360 м 
[St]
-7.2 -7.6 97 -11  1018.4  -0.4  758  314           
03 11.12.17 130 (ЮВ) 20000 м    10/10 300 м 
[St]
-6.3 -6.6 98 -10  1017.9  -0.5  757  313  -8.2    0.0  23  равномерный
сухой снег
100% 
06 11.12.17 140 (ЮВ) 20000 м    10/10 360 м 
[St]
-4.6 -5 97 -8  1018.1  0.3  758  311           
09 11.12.17 140 (ЮВ) 20000 м    9/9 2000 м средняя 
[Ac As]
-3.4 -4.4 93 -6  1017.7  -0.4  757  309           
12 11.12.17 130 (ЮВ) 6{10}  20000 м    9/1 300 м средняя 
[Sc|Ac As]
-3.6 -4.5 93 -8  1016.9  -0.7  757  310           
15 11.12.17 130 (ЮВ) 5{10}  20000 м  в посл. час переохл. осадки (гололёд){дождь} [диам. гололёда 1 мм]  10/10 400 м 
[Sc]
-3.7 -4.1 97 -7  1016.7  -0.3  757  309    -3.4  0.3     
18 11.12.17 140 (ЮВ) 20000 м  {дождь} [диам. гололёда 1 мм]  10/10 300 м 
[St]
-3.5 -3.8 98 -6  1017.3  0.6  757  309           
21 11.12.17 150 (ЮВ) 20000 м  [диам. гололёда 1 мм]  10/10 300 м 
[St]
-3.9 -4.3 97 -7  1018  0.7  758  310           
00 12.12.17 140 (ЮВ) 20000 м  [диам. гололёда 1 мм]  10/10 330 м 
[St]
-4.3 -4.8 96 -7  1018.4  0.4  758  311           
03 12.12.17 140 (ЮВ) 20000 м  [диам. гололёда 1 мм]  10/10 270 м 
[St]
-4.5 -4.6 99 -7  1019.1  0.7  758  311  -4.5      22  равномерный
мокрый или
старый снег
100% 
06 12.12.17 140 (ЮВ) 10 км    10/10 150 м 
[St]
-5.1 -5.1 100 -7  1019.5  0.4  759  312  -5.1         
09 12.12.17 130 (ЮВ) 4000 м  снежные зёрна  10/10 240 м 
[St]
-4.9 -5 99 -7  1020.2  0.6  759  312           
12 12.12.17 130 (ЮВ) 10 км  в посл. час морось{снег}  10/10 330 м 
[St]
-4.7 -5.1 97 -8  1019.5  -0.7  759  312           
15 12.12.17 130 (ЮВ) 20000 м    10/10 480 м 
[Sc]
-4.3 -4.9 96 -7  1019.8  -0.7  759  311    -4.3  0.0     
18 12.12.17 140 (ЮВ) 20000 м    9/9 750 м 
[Sc]
-4.8 -5.3 96 -8  1018  -1.8  758  311           
21 12.12.17 140 (ЮВ) 20000 м    10/10 450 м 
[Sc]
-4.1 -4.8 95 -7  1016.5  -1.5  756  310           
00 13.12.17 150 (ЮВ) 6-10{11}  20000 м    10/10 500 м 
[Sc]
-3.5 -4.7 91 -8  1013.5  -2.9  754  308           
03 13.12.17 160 (Ю) 5-10{13}  20000 м    10/10 480 м 
[Sc]
-3.8 -5 91 -7  1009.9  -3.5  752  308  -4.9      21  равномерный
сухой снег
100% 
06 13.12.17 160 (Ю) 8-13{16}  20000 м    10/10 480 м 
[Sc]
-3.3 -4.7 90 -8  1006.3  -3.6  749  306           
Время (UTC), дата Ветер
(°,м/с) 
Видим.   Явления Облачность Т
(°С)
Тd
(°С)
f(%) Тe
(°С)
Pmin
(гПа)
dP
(гПа)
Po
(мм)
O2
(г/м3)
Тmin Tmax R s Состояние
почвы

Для получения пояснительной информации подведите курсор к названию столбца.

ПОГОДА в Суре - архив

Всё, что Вы хотите узнать о погоде в Суре - удобно и подробно!

Выберите нужную дату (начиная с 1 января 2015* года) и нажмите кнопку "Найти".
Будут отображены архивные сводки погоды по пункту Сура, начиная с указанной даты.


Отображать данные в формате CSV (для использования в таблицах Excel)


Внимание! Наш архив погоды предназначен исключительно для личного некоммерческого использования в познавательных целях. Если Вам необходимы официальные справки о состоянии погоды (для производственных, юридических, коммерческих и т.п. целей), обращайтесь в органы Росгидромета.

*Примечание: данная дата относится к архиву по метеостанциям СССР (Россия, СНГ, Балтия).
Архив по метеостанциям Зарубежной Европы и Азии (кроме Китая) хранится 10 дней, по другим регионам земного шара (Китай, Африка, Америка, Австралия, Океания) - 1 день.

Сура - район местоположения метеостанции


Название, широта, долгота, высота метеостанции:
Сура 63.6°ш. 45.6°д. 62 м над ур. моря [Российская Федерация]

Дополнительная информация

В oтличие oт бoльшинства пoгoдных сайтoв мы публикуем пoдрoбную метеoинфoрмацию в детальнoм прoфессиoнальнoм фoрмате.

Характеристики температуры и влажнoсти вoздуха измеряются на высoте 2 м в тени вдали oт зданий и деревьев.
Скoрoсть ветра измеряется на высoте 10 м (на урoвне рoста челoвека скoрoсть ветра ниже в 1.5-2 раза). Если метеoстанция нахoдится в гoрoде или в лесу, тo скoрoсть ветра занижена на 2-4 м/с пo сравнению с oткрытым местoм. Скoрoсть ветра над акватoриями крупных рек и oзёр, а также на вершинах хoлмoв на 2-5 м/с выше, чем в oбычных услoвиях.
Атмoсфернoе давление в разных тoчках местнoсти мoжет значительнo oтличаться oт давления на метеoстанции, в зависимoсти oт услoвий рельефа (при пoдъёме на 10 м давление пoнижается примернo на 1 мм рт.ст.).